Weather in Mayskoye

Russia / Republic of North Ossetia — Alania     43°11′11″N   44°43′25″E
temp.,
°C
wind,
m/s
gust,
m/s
humid.,
%
clouds,
%
prec.,
mm/h
press.,
hPa
HPBL,
m
26 january, tue
tue2600:00+1ese11650 0.0 101922
03:00+1sw115839 0.0 101822
06:00+2sse1145100 0.0 101922
09:00+4sw1139100 0.0 102022
12:00+7wsw2341100 0.0 1020329
15:00+6w245086 0.0 1020325
18:00+3sw12638 0.0 102222
21:00+2sse11684 0.0 102122
27 january, wed
wed2700:00+2se126765 0.0 102122
03:00+2e226561 0.0 102022
06:00+1e226353 0.0 101822
09:00+4e115454 0.0 101636
12:00+7ne224487 0.0 1013234
15:00+7ne225277 0.0 1011252
18:00+3ene117254 0.0 101222
21:00+2w117477 0.0 101122
28 january, thu
thu2800:00+2wsw1164100 0.0 101022
03:00+2sw226179 0.0 100922
06:00+3ssw11520 0.0 100822
09:00+6sw114936 0.0 100822
12:00+9ne2245100 0.0 1005108
15:00+9n2251100 0.0 1004145
18:00+4wsw4681100 0.0 1007184
21:00+4wsw5979100 0.0 1008311
29 january, fri
fri2900:00+3wsw238752 0.0 100981
03:00+3wsw119076 0.0 101023
06:00+1wnw4797100 3.7 1012312
09:00+2ssw1297100 5.4 101484
12:00+3ne3384100 0.1 1012466
15:00+2ne3595100 0.1 1012295
18:00+2ene3689100 0.1 1014499
21:00+2e4881100 0.1 1015428
30 january, sat
sat3000:00+1e368237 0.0 1014188
03:000ese359524 0.0 1013136
06:000ese119057 0.0 101221
09:00+2nne117864 0.0 101250
12:00+5n1159100 0.0 1010293
15:00+6ene346187 0.0 1009445
18:00+2e33840 0.0 101065
21:00+1e22870 0.0 101022